SCP
0 0 0 0 0 0 0 0 0 0 1 1 1 1 1 2 2 2 2 2 2 2 2 2 2 1 1 1 1 1 1 1 1 1 1 0 0 0 0 0 0 1 1 1
0 0 1 1 1 1 1 1 1 1 1 2 2 2 2 2 3 4 3 2 2 2 2 2 2 1 1 1 1 1 1 1 1 1 1 1 1 1 1 1 1 1 1 1
1 1 1 1 1 1 1 1 1 2 2 3 3 2 2 2 4 5 4 3 2 2 2 2 1 1 1 1 1 1 1 1 1 1 1 1 1 1 1 1 1 1 1 1
1 1 1 1 1 1 2 2 2 2 3 3 3 2 2 3 4 5 4 4 3 3 2 2 2 1 1 1 1 1 1 1 1 1 1 1 1 1 1 1 1 1 1 1
0 1 1 1 1 1 2 2 3 3 3 3 2 2 3 3 4 4 5 4 4 3 2 2 2 2 2 1 1 1 1 1 1 1 1 1 1 1 1 1 1 1 1 1
0 1 1 1 1 1 1 2 3 4 3 2 2 2 2 3 3 4 4 4 3 2 2 2 2 2 2 1 1 1 1 1 1 2 2 2 2 2 1 1 1 1 1 1
0 1 1 1 2 2 2 3 3 3 2 1 1 1 2 2 3 3 2 2 2 2 1 2 2 2 2 2 1 2 2 2 2 2 2 2 2 2 2 2 1 1 1 1
0 1 1 1 1 2 3 4 4 2 1 1 1 1 2 2 2 2 2 2 2 2 2 2 2 2 2 1 1 2 2 2 2 2 3 3 2 2 2 2 1 1 1 1
1 1 1 1 1 2 3 4 3 2 1 1 1 1 1 1 1 1 1 1 2 2 2 1 1 1 1 1 1 1 2 2 3 3 3 3 3 2 2 2 2 2 1 1
1 2 2 2 2 2 2 2 2 1 1 1 1 1 1 1 1 1 1 1 1 1 1 1 1 1 1 1 1 1 1 2 2 3 3 3 3 3 3 2 2 2 2 2
1 2 3 3 2 1 1 1 1 1 1 1 1 1 1 1 1 1 1 1 1 1 0 0 0 0 0 1 1 1 1 2 2 2 3 3 3 3 2 2 2 2 2 2
1 2 2 2 1 1 1 1 1 1 0 0 1 1 0 0 0 0 0 0 0 0 0 0 0 0 0 0 0 1 1 1 2 2 2 2 2 2 1 1 1 1 1 2
1 1 1 1 1 1 1 1 1 0 0 0 0 0 0 0 0 0 0 0 0 0 0 0 0 0 0 0 0 0 1 1 1 1 2 2 2 1 0 0 0 0 0 0
1 1 1 1 1 1 1 0 0 0 0 0 0 0 0 0 0 0 0 0 0 0 0 0 0 0 0 0 0 0 0 1 1 1 1 1 1 1 1 0 0 0 0 0
0 0 0 0 0 0 0 0 0 0 0 0 0 0 0 0 0 0 0 0 0 0 0 0 0 0 0 0 1 1 1 1 1 1 1 1 1 1 1 0 0 0 0 0
0 0 0 0 0 0 0 0 0 0 0 0 0 0 0 0 0 0 0 0 0 0 0 0 0 0 0 0 0 0 0 0 0 0 0 0 0 1 1 1 1 1 0 0
0 0 0 0 0 0 0 0 0 0 0 0 0 0 0 0 0 0 0 0 0 0 0 0 0 0 0 0 0 0 0 0 0 0 0 0 0 0 0 0 0 1 0 0
0 0 0 0 0 0 0 0 0 0 0 0 0 0 0 0 0 0 0 0 0 0 0 0 0 0 0 0 0 0 0 0 0 0 0 0 0 0 0 0 0 0 0 0
0 0 0 0 0 0 0 0 0 0 0 0 0 0 0 0 0 0 0 0 0 0 0 0 0 0 0 0 0 0 0 0 0 0 0 0 0 0 0 0 0 0 0 0
0 0 0 0 0 0 0 0 0 0 0 0 0 0 0 0 0 0 0 0 0 0 0 0 0 0 0 0 0 0 0 0 0 0 0 0 0 0 0 0 0 0 0 0
0 0 0 0 0 0 0 0 0 0 0 0 0 0 0 0 0 0 0 0 0 0 0 0 0 0 0 0 0 0 0 0 0 0 0 0 0 0 0 0 0 0 0 0
0 0 0 0 0 0 0 0 0 0 0 0 0 0 0 0 0 0 0 0 0 0 0 0 0 0 0 0 0 0 0 0 0 0 0 0 0 0 0 0 0 0 0 0
0 0 0 0 0 0 0 0 0 0 0 0 0 0 0 0 0 0 0 0 0 0 0 0 0 0 0 0 0 0 0 0 0 0 0 0 0 0 0 0 0 0 0 0
0 0 0 0 0 0 0 0 0 0 0 0 0 0 0 0 0 0 0 0 0 0 0 0 0 0 0 0 0 0 0 0 0 0 0 0 0 0 0 0 0 0 0 0
0 0 0 0 0 0 0 0 0 0 0 0 0 0 0 0 0 0 0 0 0 0 0 0 0 0 0 0 0 0 0 0 0 0 0 0 0 0 0 0 0 0 0 0
0 0 0 0 0 0 0 0 0 0 0 0 0 0 0 0 0 0 0 0 0 0 0 0 0 0 0 0 0 0 0 0 0 0 0 0 0 0 0 0 0 0 0 0
0 0 0 0 0 0 0 0 0 0 0 0 0 0 0 0 0 0 0 0 0 0 0 0 0 0 0 0 0 0 0 0 0 0 0 0 0 0 0 0 0 0 0 0
Wind_Speed
3 3 3 1 1 2 4 6 7 6 7 8 7 6 4 4 5 7 6 6 6 5 5 4 4 5 5 5 6 7 7 7 8 8 7 7 7 7 7 7 8 8 8 7
2 2 3 3 2 1 2 3 5 6 2 2 4 4 4 3 5 6 6 6 6 6 5 5 5 5 5 5 6 6 7 7 7 7 7 7 7 7 7 7 7 7 8 8
1 2 4 3 3 2 3 2 5 5 4 5 6 5 4 3 4 4 4 5 4 4 4 4 5 5 6 6 5 6 6 6 7 8 8 8 8 7 8 7 7 6 7 7
2 3 2 4 1 7 9 7 5 6 5 8 8 6 5 4 4 4 4 3 2 2 2 2 3 3 4 5 6 6 6 6 6 7 8 7 7 7 6 5 6 6 6 6
3 2 1 2 2 2 7 4 3 7 8 8 8 7 6 5 4 4 3 3 2 2 2 2 2 3 5 5 5 6 6 6 7 7 8 8 8 7 6 5 5 4 4 5
4 3 3 3 4 1 8 3 1 6 6 6 4 4 1 3 5 5 6 4 4 3 3 3 1 3 5 5 4 4 4 5 5 6 6 7 7 6 5 5 5 4 3 3
4 3 3 3 6 2 5 5 2 4 4 5 3 3 3 4 6 6 6 6 6 7 6 4 3 5 6 5 4 2 2 3 4 4 5 5 5 5 5 5 5 5 4 3
4 4 5 4 3 2 3 2 4 5 6 9 8 8 8 7 8 8 8 8 8 8 8 7 7 7 8 6 3 4 5 6 5 5 4 5 6 5 5 6 6 5 4 3
3 3 1 1 2 2 4 5 4 5 7 10 10 9 9 8 8 8 8 8 8 9 10 9 8 8 9 5 5 7 8 8 7 7 7 6 6 6 5 4 4 3 3 3
3 2 3 4 5 5 6 6 6 7 9 11 12 11 10 8 8 8 8 8 8 10 11 10 9 9 8 6 6 8 9 7 7 7 8 7 6 5 5 4 4 4 3 3
3 3 5 4 4 6 9 10 11 11 11 11 13 12 11 9 9 8 8 7 8 9 9 8 8 9 7 7 8 9 9 7 7 6 6 7 7 6 5 4 3 4 3 3
4 5 5 4 3 6 10 11 11 12 11 10 11 13 12 10 9 8 8 8 9 9 9 8 8 8 7 7 7 8 8 6 5 4 4 5 6 7 12 9 10 10 7 5
4 5 7 7 7 7 10 11 11 11 12 12 11 12 12 11 9 9 9 9 8 8 8 7 8 8 7 6 7 8 7 5 4 4 4 4 5 5 5 6 10 11 10 9
9 9 8 6 7 8 11 12 12 12 11 12 11 11 11 11 10 10 9 8 8 8 8 8 9 8 7 6 7 7 6 7 5 4 4 4 5 4 4 5 5 4 6 9
6 7 9 9 10 10 11 12 13 12 11 11 10 10 11 11 10 9 7 7 9 10 9 9 9 8 7 7 8 7 6 5 5 5 5 5 5 5 5 6 5 4 4 5
9 10 11 12 11 10 11 12 12 11 11 11 10 10 10 11 10 9 8 8 9 9 8 8 8 7 7 8 8 7 7 11 9 7 7 7 6 6 5 5 5 5 5 4
11 10 11 11 10 10 10 10 10 10 10 11 11 11 11 11 11 10 9 8 8 8 7 7 6 6 8 8 8 6 6 8 12 8 7 7 7 6 6 5 5 5 4 6
8 9 10 11 12 11 10 10 9 10 10 10 10 10 11 11 10 8 7 7 9 9 9 7 6 7 8 8 6 6 6 6 6 7 7 7 7 6 6 6 6 6 4 5
9 10 10 11 12 11 10 10 9 9 9 10 11 10 10 9 8 8 7 8 9 8 6 6 10 9 8 9 8 6 7 7 7 7 7 9 8 7 6 6 6 5 5 4
9 11 12 12 11 11 11 10 10 10 10 10 11 10 10 9 8 8 8 7 4 2 3 6 7 7 7 8 10 6 7 8 8 7 7 7 7 6 6 6 6 5 5 5
11 12 13 12 11 11 11 11 11 11 9 10 11 10 9 8 7 7 7 6 3 4 6 8 6 5 6 7 9 7 7 7 7 6 6 6 6 6 5 5 5 5 5 4
10 11 12 12 12 11 10 10 11 11 11 10 10 10 10 8 8 7 6 3 2 5 5 5 5 7 8 9 6 7 7 7 6 6 5 5 5 5 5 5 5 5 4 4
10 11 12 12 12 12 11 10 11 10 10 10 10 9 9 6 5 6 4 2 3 6 5 5 7 11 12 7 6 6 7 7 6 5 5 5 5 5 5 5 4 4 4 4
11 12 11 11 12 13 12 10 10 9 10 9 9 9 8 7 5 3 4 5 7 8 5 6 11 11 9 5 5 6 6 6 5 5 5 4 4 4 4 4 4 4 4 5
11 11 11 12 11 9 10 10 10 10 9 7 8 7 5 5 5 4 4 5 7 7 5 7 10 10 6 5 5 5 5 5 5 4 4 4 4 4 3 3 3 3 3 3
9 8 8 8 8 7 7 7 7 6 7 7 5 5 4 4 5 4 4 5 6 7 5 4 5 6 4 5 5 4 4 4 4 4 4 3 4 3 3 3 4 3 2 2
9 8 7 7 7 6 6 7 7 6 6 6 6 4 4 4 4 4 5 4 4 4 3 3 3 4 4 4 4 3 3 3 3 3 3 3 3 3 3 3 3 2 2 2
Wind_Direction
182 178 135 136 165 142 138 162 166 191 180 205 197 188 179 158 142 140 147 157 163 170 169 166 168 169 171 174 174 174 170 171 175 174 174 172 173 175 176 179 183 181 180 184
22 38 79 59 8 106 110 123 127 127 169 190 129 103 110 133 139 143 155 160 169 175 170 170 175 180 175 176 177 171 173 178 178 172 173 176 177 176 177 181 181 179 184 186
329 335 59 12 337 93 93 87 135 147 171 128 108 98 103 114 115 128 148 152 162 169 173 185 187 184 183 182 172 169 177 180 177 174 179 184 181 178 181 183 180 181 185 185
106 59 149 235 334 96 92 59 66 98 114 114 114 107 81 78 101 107 121 130 145 146 171 198 184 179 175 169 165 171 178 183 180 179 183 179 174 177 183 180 181 185 187 187
108 120 238 305 2 91 111 62 65 107 109 114 119 90 56 49 74 85 98 107 116 129 153 165 172 174 159 157 161 169 182 189 186 182 181 177 178 178 175 169 170 171 170 173
121 131 201 241 310 339 103 86 67 119 129 137 125 104 110 47 60 66 63 66 66 73 84 101 119 138 134 138 143 166 188 191 180 173 172 171 173 169 161 156 161 153 147 150
133 151 236 281 303 336 129 189 169 128 132 115 98 133 122 78 66 67 66 62 63 66 65 57 71 102 103 101 110 135 131 125 124 134 142 145 140 135 132 135 131 128 127 119
133 157 227 304 7 100 165 133 115 108 107 105 104 102 93 82 75 69 64 60 63 71 64 50 56 82 87 79 76 82 88 91 93 100 109 112 111 113 118 128 128 129 125 108
155 180 185 63 102 100 120 114 111 116 119 118 110 105 97 86 80 73 69 66 64 72 66 52 47 65 76 63 72 84 84 82 81 81 78 82 97 104 102 105 115 115 114 113
96 93 91 76 80 81 95 106 105 115 120 116 115 112 104 96 88 79 68 66 69 72 70 58 49 53 58 59 71 85 88 85 83 84 80 72 74 82 90 94 103 104 104 106
102 120 94 69 78 100 101 98 97 99 103 110 113 111 107 100 90 84 77 67 67 71 71 62 54 51 46 52 69 76 79 83 80 79 86 82 70 57 69 65 95 117 116 112
182 179 141 131 105 112 108 106 108 109 103 101 107 111 107 100 92 86 81 75 71 68 65 58 56 52 40 44 64 76 76 75 81 86 88 93 95 76 53 64 68 74 81 94
135 116 111 116 103 102 106 109 109 107 107 106 103 106 105 100 94 88 81 76 73 69 65 60 57 51 39 43 60 69 76 76 79 89 94 99 104 106 94 61 60 64 64 70
116 111 104 108 112 109 108 107 103 99 101 104 104 102 102 98 93 88 81 76 74 68 60 56 55 44 31 42 58 66 71 73 79 83 90 93 97 98 98 95 73 47 43 58
98 106 120 120 112 109 110 111 108 106 105 100 99 101 101 98 94 89 82 78 75 67 58 54 51 35 26 42 53 57 66 67 68 74 80 84 86 86 86 83 80 68 52 44
108 108 115 116 115 117 118 116 115 114 113 110 106 103 101 99 94 86 77 74 74 67 56 53 46 30 33 47 54 54 60 68 74 73 73 75 78 82 83 83 80 71 60 46
126 129 129 127 124 121 120 120 119 120 118 115 113 110 105 99 93 85 78 72 72 67 57 53 45 37 44 51 59 63 63 64 69 71 71 75 77 79 78 78 77 72 61 53
132 136 139 138 134 128 124 120 117 116 118 118 114 109 106 103 100 95 88 79 72 60 45 42 48 52 50 51 60 64 68 67 68 72 72 72 74 75 75 72 70 69 58 51
125 127 128 127 127 125 123 122 120 117 116 114 111 109 107 105 102 95 86 77 70 60 31 35 53 54 49 50 61 64 68 69 68 68 71 73 72 69 70 70 69 63 57 57
118 120 120 119 119 121 122 120 116 113 113 113 109 106 103 102 101 95 85 74 62 67 53 54 53 50 47 53 65 68 69 71 73 72 71 72 73 70 68 70 69 64 57 55
121 121 122 120 116 116 118 119 117 114 112 111 111 111 108 103 99 96 90 78 34 47 62 61 57 51 51 62 67 68 71 73 73 72 72 72 72 70 67 64 63 60 55 52
120 120 120 119 115 112 110 111 111 111 109 107 108 109 108 104 98 87 78 89 78 71 69 58 58 62 66 70 69 70 72 74 74 73 72 71 71 69 64 61 60 60 57 52
110 110 111 112 113 111 106 104 105 106 106 108 109 110 108 106 106 106 94 63 77 76 74 69 72 71 73 71 72 72 73 75 76 75 75 73 72 72 71 68 63 59 57 54
106 106 106 107 107 105 103 101 101 101 102 101 103 108 110 106 90 84 107 99 88 84 79 75 74 76 77 74 74 73 73 75 77 78 76 75 74 72 72 71 65 58 60 61
104 105 107 108 106 108 110 108 103 100 99 97 96 95 98 108 115 113 103 100 96 88 78 71 72 76 77 83 83 80 79 84 89 88 82 80 78 77 75 70 66 63 58 54
101 102 103 106 110 112 111 108 106 106 107 104 97 95 94 92 98 100 98 97 94 89 82 73 74 74 78 86 90 87 84 85 86 84 86 86 84 81 76 71 66 70 68 59
92 93 94 93 93 100 106 108 110 110 112 114 112 108 105 101 98 98 97 94 93 89 86 82 79 83 87 87 86 86 84 83 88 92 90 86 85 83 79 83 83 75 65 56